DW1253 Weather Reports


time (UTC)temp
F
wind
direction
speed
knots
gust
knots
rain 1hr
in
rain 24hr
in
rain mn
in
humidity
%
barometer
mb
20260831174848 71 191 0.9 3.5 0.00 0.48 0.29 95 1017.7
20260831174343 71 221 1.7 3.5 0.00 0.48 0.29 95 1017.9
20260831173837 71 207 0.9 2.6 0.00 0.48 0.29 95 1017.7
20260831173332 70 244 0.9 3.5 0.01 0.48 0.29 95 1017.7
20260831172847 70 263 0.9 3.5 0.01 0.48 0.29 95 1017.7
20260831172341 70 208 0.9 3.5 0.02 0.48 0.29 95 1017.8
20260831171838 70 192 0.9 4.3 0.05 0.48 0.29 95 1017.8
20260831171352 70 236 1.7 4.3 0.07 0.48 0.29 96 1017.9
20260831170848 69 222 0.9 2.6 0.07 0.48 0.29 96 1018.0
20260831170343 69 222 0.0 2.6 0.09 0.48 0.29 96 1017.8
20260831165851 69 137 0.9 2.6 0.09 0.48 0.29 96 1017.9
20260831165406 69 244 0.9 2.6 0.09 0.48 0.29 96 1018.1
20260831164839 68 154 0.9 2.6 0.09 0.48 0.29 96 1018.0
20260831164413 67 154 0.0 2.6 0.09 0.48 0.29 96 1018.0
20260831163847 67 209 0.0 3.5 0.09 0.48 0.29 96 1018.0
20260831163342 67 217 1.7 3.5 0.08 0.47 0.28 96 1018.0
20260831162841 67 294 0.9 2.6 0.08 0.47 0.28 96 1018.1
20260831162408 67 233 0.9 3.5 0.08 0.46 0.27 96 1018.2
20260831161901 67 242 0.9 3.5 0.05 0.43 0.24 96 1018.2
20260831161413 67 142 0.0 1.7 0.03 0.41 0.22 96 1018.2
20260831160847 66 142 0.0 3.5 0.03 0.41 0.22 96 1018.3
20260831160346 66 115 0.0 0.9 0.01 0.39 0.20 96 1018.3
20260831155832 66 115 0.0 1.7 0.01 0.39 0.20 96 1018.3
20260831155348 66 115 0.0 2.6 0.01 0.39 0.20 96 1018.4
20260831154843 66 218 0.9 3.5 0.01 0.39 0.20 96 1018.5
20260831154337 66 217 1.7 3.5 0.01 0.39 0.20 96 1018.5
20260831153851 66 118 0.9 2.6 0.01 0.39 0.20 96 1018.4
20260831153346 66 238 0.9 2.6 0.02 0.39 0.20 96 1018.5
20260831152840 66 229 0.9 2.6 0.04 0.39 0.20 96 1018.5
20260831152335 66 248 0.9 2.6 0.05 0.38 0.19 96 1018.3
20260831151909 65 178 0.9 4.3 0.07 0.38 0.19 96 1018.2
20260831151405 65 215 0.9 4.3 0.07 0.38 0.19 96 1018.2
20260831150841 65 204 0.9 2.6 0.07 0.38 0.19 96 1018.2
20260831150336 65 244 0.0 2.6 0.07 0.38 0.19 95 1018.2
20260831145903 65 177 0.0 1.7 0.07 0.38 0.19 95 1018.2
20260831145338 65 188 0.0 2.6 0.07 0.38 0.19 95 1018.2
20260831144851 65 132 0.9 2.6 0.08 0.38 0.19 95 1018.2
20260831144405 65 173 0.9 2.6 0.08 0.38 0.19 95 1018.2
20260831143839 65 174 0.0 3.5 0.08 0.37 0.18 95 1018.2
20260831143354 65 242 1.7 3.5 0.09 0.37 0.18 95 1018.2
20260831142846 65 186 0.0 2.6 0.07 0.35 0.16 95 1018.1
20260831142340 65 186 0.9 2.6 0.06 0.33 0.14 95 1018.1
20260831141833 65 180 0.0 1.7 0.04 0.31 0.12 95 1018.1
20260831141348 65 180 0.9 2.6 0.04 0.31 0.12 95 1018.1
20260831140843 64 134 0.0 5.2 0.04 0.31 0.12 95 1018.1
20260831140338 64 144 0.9 5.2 0.05 0.31 0.12 95 1018.1
20260831135845 64 98 0.9 5.2 0.05 0.31 0.12 95 1018.2
20260831135344 64 161 1.7 5.2 0.05 0.31 0.12 95 1018.1
20260831134839 64 209 0.9 3.5 0.04 0.30 0.11 95 1018.1
20260831134334 64 136 0.0 4.3 0.04 0.30 0.11 95 1018.2
20260831133909 64 152 0.9 4.3 0.03 0.29 0.10 95 1018.2
20260831133343 64 200 1.7 4.3 0.02 0.28 0.09 95 1018.3
20260831132838 64 273 0.0 3.5 0.02 0.28 0.09 95 1018.2
20260831132353 64 175 0.9 3.5 0.01 0.27 0.08 95 1018.1
20260831131908 64 192 0.0 4.3 0.01 0.27 0.08 95 1018.2
20260831131342 64 209 1.7 4.3 0.01 0.27 0.08 95 1018.3
20260831130838 64 204 0.0 4.3 0.01 0.27 0.08 95 1018.2
20260831130353 64 222 0.0 4.3 0.01 0.26 0.07 95 1018.2
20260831125838 64 196 0.0 3.5 0.01 0.26 0.07 95 1018.2
20260831125333 64 138 0.0 1.7 0.01 0.26 0.07 95 1018.1
20260831124908 64 138 0.0 1.7 0.01 0.26 0.07 95 1018.0
20260831124342 64 215 0.9 1.7 0.01 0.26 0.07 95 1018.0
20260831123856 64 208 0.0 1.7 0.01 0.26 0.07 95 1018.1
20260831123350 64 208 0.9 1.7 0.01 0.26 0.07 95 1018.1
20260831122844 64 215 0.0 3.5 0.01 0.26 0.07 95 1018.0
20260831122339 64 200 0.9 3.5 0.01 0.26 0.07 95 1018.1
20260831121832 64 229 0.0 2.6 0.01 0.26 0.07 95 1018.2
20260831121408 64 288 0.0 2.6 0.01 0.26 0.07 95 1018.3
20260831120840 64 288 0.0 2.6 0.01 0.26 0.07 95 1018.5
20260831120336 64 139 0.0 2.6 0.00 0.25 0.06 95 1018.6
20260831115844 64 139 0.0 2.6 0.00 0.25 0.06 95 1018.6
20260831115338 64 139 0.9 1.7 0.00 0.25 0.06 95 1018.7
20260831114833 64 177 0.9 1.7 0.00 0.25 0.06 95 1018.6
20260831114348 64 177 0.9 1.7 0.00 0.25 0.06 95 1018.4
20260831113902 64 177 0.0 1.7 0.00 0.25 0.06 95 1018.2
20260831113336 64 164 0.0 1.7 0.00 0.25 0.06 95 1018.2
20260831112834 64 164 0.0 1.7 0.00 0.25 0.06 95 1018.2
20260831112348 64 157 0.0 0.0 0.00 0.25 0.06 95 1018.3
20260831111842 64 157 0.0 0.0 0.00 0.25 0.06 95 1018.2
20260831111337 64 157 0.0 0.0 0.00 0.25 0.06 95 1018.5
20260831110851 64 157 0.0 0.0 0.00 0.25 0.06 95 1018.6
20260831110346 64 157 0.0 0.9 0.00 0.25 0.06 95 1018.5
20260831105834 64 157 0.0 3.5 0.00 0.25 0.06 95 1018.4
20260831105350 64 157 1.7 3.5 0.00 0.25 0.06 95 1018.5
20260831104844 64 213 0.0 1.7 0.00 0.25 0.06 95 1018.6
20260831104337 64 213 0.0 2.6 0.00 0.25 0.06 95 1018.6
20260831103852 64 213 0.9 3.5 0.00 0.25 0.06 95 1018.5
20260831103406 64 274 0.0 4.3 0.00 0.25 0.06 95 1018.4
20260831102841 64 138 0.9 4.3 0.00 0.25 0.06 95 1018.2
20260831102335 64 207 0.9 3.5 0.00 0.25 0.06 95 1018.3
20260831101851 63 251 0.0 1.7 0.00 0.25 0.06 95 1018.2
20260831101344 64 251 0.0 2.6 0.00 0.25 0.06 95 1018.5
20260831100840 64 206 0.9 2.6 0.00 0.25 0.06 95 1018.5
20260831100355 64 214 0.0 2.6 0.00 0.25 0.06 95 1018.5
20260831095859 63 214 0.0 2.6 0.00 0.25 0.06 95 1018.5
20260831095353 63 176 0.0 1.7 0.00 0.25 0.06 95 1018.4
20260831094846 63 176 0.0 1.7 0.00 0.25 0.06 95 1018.4
20260831094401 63 138 0.0 0.9 0.00 0.25 0.06 95 1018.3
20260831093854 63 138 0.0 0.9 0.00 0.25 0.06 95 1018.4
20260831093348 63 138 0.0 3.5 0.00 0.25 0.06 94 1018.5
20260831092902 63 138 0.0 3.5 0.00 0.25 0.06 94 1018.6
20260831092335 63 149 0.9 1.7 0.00 0.25 0.06 94 1018.5
20260831091849 63 119 0.0 1.7 0.00 0.25 0.06 94 1018.5
20260831091344 64 151 0.0 1.7 0.00 0.25 0.06 94 1018.4
20260831090837 64 151 0.0 1.7 0.01 0.25 0.06 94 1018.5
20260831090333 64 151 0.9 6.1 0.01 0.25 0.06 94 1018.3
20260831085841 64 153 0.9 6.1 0.01 0.25 0.06 94 1018.4
20260831085335 64 184 1.7 3.5 0.01 0.25 0.06 94 1018.7
20260831084834 64 180 0.0 1.7 0.01 0.25 0.06 94 1018.7
20260831084348 64 137 0.0 2.6 0.02 0.25 0.06 94 1018.7
20260831083843 64 218 0.0 2.6 0.02 0.25 0.06 94 1018.8
20260831083337 64 163 0.0 1.7 0.02 0.25 0.06 94 1018.8
20260831082851 64 163 0.0 1.7 0.02 0.25 0.06 94 1018.7
20260831082345 64 163 0.9 1.7 0.02 0.25 0.06 94 1018.8
20260831081901 64 165 0.0 1.7 0.02 0.25 0.06 94 1018.8
20260831081334 64 165 0.0 1.7 0.02 0.25 0.06 94 1018.8
20260831080848 64 165 0.9 1.7 0.02 0.24 0.05 94 1018.8
20260831080344 64 218 0.0 2.6 0.03 0.24 0.05 94 1018.8
20260831075850 64 232 0.0 3.5 0.03 0.24 0.05 94 1018.8
20260831075345 64 215 0.9 4.3 0.03 0.24 0.05 94 1019.0
20260831074859 64 258 1.7 5.2 0.03 0.24 0.05 94 1019.1
20260831074333 64 229 2.6 7.0 0.02 0.23 0.04 94 1019.1
20260831073847 64 209 2.6 8.7 0.02 0.23 0.04 94 1019.0
20260831073341 64 238 3.5 8.7 0.02 0.23 0.04 94 1019.2
20260831072836 64 215 1.7 6.1 0.02 0.23 0.04 94 1019.3
20260831072350 64 231 1.7 6.1 0.02 0.23 0.04 94 1019.3
20260831071841 64 223 0.9 2.6 0.03 0.23 0.04 94 1019.3
20260831071336 64 186 0.0 1.7 0.03 0.23 0.04 94 1019.3
20260831070850 64 244 0.0 1.7 0.02 0.22 0.03 94 1019.4
20260831070332 64 244 0.0 2.6 0.01 0.21 0.02 94 1019.3
20260831065839 64 244 0.0 2.6 0.01 0.21 0.02 94 1019.3
20260831065407 64 239 0.0 3.5 0.01 0.21 0.02 94 1019.3
20260831064843 64 240 1.7 3.5 0.01 0.21 0.02 94 1019.4
20260831064337 64 221 0.9 3.5 0.01 0.21 0.02 94 1019.4
20260831063833 64 221 0.0 0.0 0.01 0.21 0.02 94 1019.4
20260831063348 64 221 0.0 0.0 0.01 0.21 0.02 94 1019.3
20260831062841 64 221 0.0 0.9 0.01 0.21 0.02 94 1019.3
20260831062336 64 221 0.0 1.7 0.00 0.20 0.01 94 1019.3
20260831061850 64 221 0.9 2.6 0.00 0.20 0.01 94 1019.4
20260831061405 64 221 0.9 3.5 0.00 0.20 0.01 94 1019.4
20260831060837 64 229 0.0 3.5 0.00 0.20 0.01 94 1019.5
20260831060333 64 236 0.9 3.5 0.00 0.20 0.01 94 1019.5
20260831055840 64 234 0.9 1.7 0.00 0.20 0.01 94 1019.5
20260831055333 64 234 0.0 2.6 0.00 0.20 0.01 94 1019.4
20260831054848 64 234 0.0 2.6 0.00 0.20 0.01 94 1019.5
20260831054341 65 226 0.9 4.3 0.00 0.20 0.01 94 1019.6
20260831053837 64 226 0.9 4.3 0.00 0.20 0.01 94 1019.6
20260831053351 64 217 0.9 3.5 0.00 0.20 0.01 94 1019.6
20260831052846 64 217 1.7 4.3 0.00 0.20 0.01 94 1019.6
20260831052340 64 221 1.7 4.3 0.00 0.20 0.01 94 1019.6
20260831051835 64 222 1.7 3.5 0.00 0.20 0.01 94 1019.7
20260831051348 64 223 2.6 4.3 0.00 0.20 0.01 94 1019.6
20260831050847 64 219 1.7 5.2 0.00 0.20 0.01 94 1019.6
20260831050402 64 221 1.7 4.3 0.00 0.20 0.01 94 1019.6
20260831045849 64 246 0.9 2.6 0.01 0.20 0.01 94 1019.6
20260831045344 64 199 0.9 2.6 0.01 0.20 0.01 94 1019.7
20260831044839 64 236 0.9 2.6 0.01 0.20 0.01 94 1019.6
20260831044333 64 223 0.0 2.6 0.01 0.20 0.01 94 1019.7
20260831043908 64 223 0.9 2.6 0.01 0.20 0.01 93 1019.6
20260831043342 64 238 0.0 2.6 0.02 0.20 0.01 93 1019.6
20260831042836 64 193 0.0 2.6 0.02 0.20 0.01 93 1019.7
20260831042350 64 150 0.9 2.6 0.03 0.20 0.01 93 1019.7
20260831041845 64 218 0.9 2.6 0.03 0.20 0.01 93 1019.7
20260831041339 64 142 0.0 1.7 0.03 0.20 0.01 93 1019.6
20260831040854 64 208 0.9 1.7 0.04 0.20 0.01 93 1019.5
20260831040409 64 207 0.0 1.7 0.04 0.20 0.01 93 1019.5
20260831035834 64 207 0.9 1.7 0.03 0.19 0.19 93 1019.5
20260831035349 64 206 0.0 1.7 0.03 0.19 0.19 93 1019.6
20260831034844 64 206 0.9 1.7 0.04 0.19 0.19 93 1019.7
20260831034337 64 205 0.0 1.7 0.04 0.19 0.19 93 1019.7
20260831033852 64 205 0.0 1.7 0.04 0.19 0.19 93 1019.7
20260831033347 64 205 0.0 1.7 0.04 0.18 0.18 93 1019.6
20260831032904 64 205 0.0 2.6 0.05 0.18 0.18 93 1019.7
20260831032336 64 205 0.9 3.5 0.05 0.17 0.17 93 1019.9
20260831031850 64 237 0.9 3.5 0.06 0.17 0.17 93 1019.7
20260831031405 64 211 0.0 2.6 0.06 0.17 0.17 93 1019.9
20260831030840 64 211 0.9 2.6 0.06 0.16 0.16 93 1019.9
20260831030334 64 211 0.9 1.7 0.07 0.16 0.16 92 1019.8
20260831025902 64 211 0.9 2.6 0.09 0.16 0.16 92 1019.9
20260831025334 64 211 0.9 4.3 0.10 0.16 0.16 92 1019.8
20260831024834 64 213 1.7 4.3 0.10 0.15 0.15 92 1019.7
20260831024347 64 214 1.7 2.6 0.10 0.15 0.15 92 1019.7
20260831023900 64 205 0.9 2.6 0.10 0.15 0.15 92 1019.8
20260831023334 64 205 0.9 3.5 0.09 0.14 0.14 92 1019.8
20260831022847 64 236 1.7 3.5 0.08 0.13 0.13 92 1019.9
20260831022341 64 223 0.9 3.5 0.07 0.12 0.12 92 1020.1
20260831021853 65 223 0.9 3.5 0.06 0.11 0.11 92 1020.0
20260831021347 65 225 1.7 3.5 0.07 0.11 0.11 92 1020.1
20260831020842 65 217 1.7 4.3 0.06 0.10 0.10 92 1020.1
20260831020338 65 224 1.7 5.2 0.05 0.09 0.09 92 1020.1
20260831015847 65 236 1.7 5.2 0.03 0.07 0.07 92 1020.1
20260831015342 65 230 1.7 3.5 0.02 0.06 0.06 92 1020.1
20260831014857 65 228 0.9 3.5 0.01 0.05 0.05 92 1020.0
20260831014409 65 227 0.9 4.3 0.01 0.05 0.05 92 1020.1
20260831013902 65 236 1.7 4.3 0.01 0.05 0.05 92 1020.0
20260831013335 65 207 0.9 4.3 0.01 0.05 0.05 91 1020.1
20260831012850 65 211 1.7 4.3 0.01 0.05 0.05 91 1020.0
20260831012404 65 217 1.7 2.6 0.01 0.05 0.05 91 1019.9
20260831011838 65 239 1.7 3.5 0.01 0.05 0.05 91 1019.9
20260831011351 65 208 1.7 3.5 0.00 0.04 0.04 91 1019.9
20260831010847 65 215 0.9 2.6 0.01 0.04 0.04 90 1019.9
20260831010342 65 194 0.9 3.5 0.01 0.04 0.04 90 1019.7
20260831005848 65 192 0.9 3.5 0.01 0.04 0.04 91 1019.7
20260831005343 65 215 0.0 2.6 0.01 0.04 0.04 91 1019.6
20260831004836 65 215 0.9 2.6 0.01 0.04 0.04 90 1019.5
20260831004351 65 215 0.9 2.6 0.01 0.04 0.04 90 1019.6
20260831003844 65 215 0.9 2.6 0.01 0.04 0.04 90 1019.5
20260831003339 65 226 0.9 2.6 0.01 0.04 0.04 90 1019.4
20260831002837 65 226 0.9 2.6 0.01 0.04 0.04 90 1019.4
20260831002351 65 227 1.7 3.5 0.01 0.04 0.04 90 1019.3
20260831001847 65 244 0.9 3.5 0.01 0.04 0.04 90 1019.2
20260831001341 65 237 0.9 2.6 0.01 0.04 0.04 90 1019.1
20260831000856 65 248 0.9 3.5 0.01 0.03 0.03 89 1019.0
20260831000410 65 254 0.9 3.5 0.01 0.03 0.03 89 1019.0
20260830235835 65 161 0.9 1.7 0.01 0.03 0.03 89 1019.0
20260830235350 65 146 0.0 0.9 0.01 0.03 0.03 90 1019.0
20260830234845 65 146 0.0 0.9 0.01 0.03 0.03 90 1018.9
20260830234357 65 146 0.0 0.9 0.01 0.03 0.03 89 1019.0
20260830233852 65 146 0.0 0.9 0.02 0.03 0.03 89 1018.9
20260830233347 66 146 0.0 0.9 0.02 0.03 0.03 89 1018.8
20260830232840 66 146 0.0 0.9 0.02 0.03 0.03 89 1018.8
20260830232335 66 146 0.0 0.9 0.02 0.03 0.03 89 1018.8
20260830231909 66 146 0.0 0.9 0.02 0.03 0.03 89 1018.8
20260830231343 66 146 0.0 1.7 0.02 0.03 0.03 89 1018.8
20260830230836 66 146 0.0 1.7 0.01 0.02 0.02 89 1018.8
20260830230331 66 146 0.0 0.9 0.01 0.02 0.02 89 1018.8
20260830225836 66 146 0.0 1.7 0.01 0.02 0.02 89 1018.8
20260830225351 66 146 0.0 1.7 0.01 0.02 0.02 89 1018.9
20260830224844 66 146 0.0 0.9 0.01 0.02 0.02 89 1018.8
20260830224339 66 146 0.0 0.0 0.01 0.02 0.02 88 1018.9
20260830223835 66 146 0.0 0.9 0.00 0.01 0.01 88 1018.9
20260830223350 66 146 0.0 0.9 0.00 0.01 0.01 88 1019.0
20260830222843 66 146 0.0 0.9 0.00 0.01 0.01 88 1019.0
20260830222342 66 146 0.0 0.9 0.00 0.01 0.01 88 1019.1
20260830221836 66 146 0.0 0.0 0.00 0.01 0.01 88 1019.1
20260830221351 66 146 0.0 0.9 0.00 0.01 0.01 88 1019.0
20260830220906 66 146 0.0 1.7 0.00 0.01 0.01 88 1019.0
20260830220340 67 146 0.0 1.7 0.00 0.01 0.01 88 1019.0
20260830215847 67 146 0.0 0.0 0.00 0.01 0.01 88 1019.0
20260830215340 67 146 0.0 0.0 0.00 0.01 0.01 88 1019.0
20260830214835 67 146 0.0 1.7 0.00 0.01 0.01 88 1019.0
20260830214349 67 146 0.9 1.7 0.00 0.01 0.01 88 1019.0
20260830213844 67 146 0.9 2.6 0.00 0.01 0.01 88 1018.9
20260830213339 67 146 0.9 2.6 0.00 0.01 0.01 87 1018.9
20260830212834 67 146 0.0 1.7 0.00 0.01 0.01 86 1018.9
20260830212349 67 146 0.0 0.9 0.00 0.01 0.01 86 1018.9
20260830211903 67 146 0.0 0.9 0.00 0.01 0.01 86 1018.9
20260830211335 67 146 0.0 0.9 0.00 0.01 0.01 86 1019.0
20260830210850 67 146 0.0 0.9 0.00 0.01 0.01 86 1019.1
20260830210345 67 146 0.0 0.9 0.00 0.01 0.01 86 1019.0
20260830205851 67 146 0.0 0.9 0.00 0.01 0.01 85 1019.1
20260830205346 68 146 0.0 0.0 0.00 0.01 0.01 85 1019.0
20260830204839 68 146 0.0 0.9 0.00 0.01 0.01 84 1019.0
20260830204334 68 146 0.9 1.7 0.00 0.01 0.01 84 1019.0
20260830203848 68 146 0.9 1.7 0.00 0.01 0.01 84 1019.2
20260830203347 68 146 0.0 0.9 0.00 0.01 0.01 84 1019.2
20260830202902 68 146 0.0 1.7 0.00 0.01 0.01 84 1019.1
20260830202334 68 146 0.9 1.7 0.00 0.01 0.01 83 1019.2
20260830201848 68 168 0.0 1.7 0.00 0.01 0.01 83 1019.3
20260830201343 68 168 0.9 1.7 0.00 0.01 0.01 82 1019.3
20260830200836 68 168 0.0 1.7 0.00 0.01 0.01 82 1019.3
20260830200333 68 168 0.0 1.7 0.00 0.01 0.01 82 1019.3
20260830195840 69 242 1.7 1.7 0.00 0.01 0.01 82 1019.3
20260830195336 69 195 0.0 1.7 0.00 0.01 0.01 83 1019.4
20260830194850 68 195 0.9 1.7 0.00 0.01 0.01 83 1019.4
20260830194405 68 196 0.0 2.6 0.00 0.01 0.01 83 1019.4
20260830193837 68 196 1.7 4.3 0.00 0.01 0.01 84 1019.4
20260830193411 68 231 2.6 5.2 0.00 0.01 0.01 83 1019.4
20260830192844 68 229 1.7 5.2 0.00 0.01 0.01 83 1019.4
20260830192340 68 181 0.9 2.6 0.01 0.01 0.01 84 1019.3
20260830191835 68 260 0.9 2.6 0.01 0.01 0.01 84 1019.3
20260830191350 68 311 0.9 2.6 0.01 0.01 0.01 85 1019.4
20260830190843 67 10 0.0 2.6 0.01 0.01 0.01 85 1019.6
20260830190359 67 5 0.9 2.6 0.01 0.01 0.01 85 1019.6
20260830185845 67 248 1.7 3.5 0.01 0.01 0.01 86 1019.7
20260830185340 67 219 0.0 4.3 0.01 0.01 0.01 88 1019.7
20260830184835 67 207 0.9 2.6 0.01 0.01 0.01 88 1019.7
20260830184348 67 234 1.7 2.6 0.01 0.01 0.01 87 1019.8
20260830183903 67 234 0.9 2.6 0.01 0.01 0.01 87 1019.9
20260830183337 67 239 0.9 3.5 0.01 0.01 0.01 87 1020.2
20260830182835 67 232 0.9 3.5 0.01 0.01 0.01 87 1020.2
20260830182351 67 263 0.0 1.7 0.00 0.00 0.00 87 1020.2
20260830181844 67 263 0.0 1.7 0.00 0.00 0.00 86 1020.1
20260830181339 67 263 0.0 1.7 0.00 0.00 0.00 86 1020.2
20260830180852 67 273 0.0 4.3 0.00 0.00 0.00 86 1020.1
20260830180347 67 273 1.7 4.3 0.00 0.00 0.00 86 1020.1
20260830175833 67 223 0.9 3.5 0.00 0.00 0.00 86 1020.1
20260830175348 67 179 0.0 1.7 0.00 0.00 0.00 87 1020.1